Stations météo

réclame
Mon MeteoGroup
Saint-Quentin, France (7061): Température de l'air & dewpoint: 11.01.2018 01:00:00 - 17.01.2018 01:00:00 (CET)Saint-Quentin, France (7061): Température de l'air 5cm: 11.01.2018 01:00:00 - 17.01.2018 01:00:00 (CET)Saint-Quentin, France (7061): Température de l'air -20cm & Température de l'air -100cm: 11.01.2018 01:00:00 - 17.01.2018 01:00:00 (CET)Saint-Quentin, France (7061): Vitesse du vent & gusts: 11.01.2018 01:00:00 - 17.01.2018 01:00:00 (CET)Saint-Quentin, France (7061): Direction du vent: 11.01.2018 01:00:00 - 17.01.2018 01:00:00 (CET)Saint-Quentin, France (7061): reduced air pressure: 11.01.2018 01:00:00 - 17.01.2018 01:00:00 (CET)Saint-Quentin, France (7061): visibility: 11.01.2018 01:00:00 - 17.01.2018 01:00:00 (CET)Saint-Quentin, France (7061): Ensoleillement: 11.01.2018 01:00:00 - 17.01.2018 01:00:00 (CET)Saint-Quentin, France (7061): Quantités de précipitations: 11.01.2018 01:00:00 - 17.01.2018 01:00:00 (CET)
Date & Time tt [°C] td [°C] tt 5cm [°C] tt -20cm [°C] tt -100cm [°C] ff [km/h] ff [knt] fx [km/h] fx [knt] dd ppp [hPa] vv [km] sd [min] rr [mm]
17.01.2018 01:00:00 3,7 1,6 2,6 6,3 8,0 28 15 45 25 WSW 998,2 20 0 0,2
17.01.2018 00:00:00 4,4 2,9 3,1 6,4 8,0 26 14 49 27 W 998,1 13 0 0,0
16.01.2018 23:00:00 4,2 2,5 3,1 6,4 8,1 31 17 46 25 W 997,8 18 0 1,6
16.01.2018 22:00:00 3,6 2,3 3,0 6,4 8,1 20 11 43 23 W 998,6 9 0 2,0
16.01.2018 21:00:00 4,0 2,7 3,0 6,4 8,0 24 13 49 27 W 999,0 9 0 1,0
16.01.2018 20:00:00 5,1 2,4 3,8 6,4 8,0 29 15 45 25 WSW 999,2 15 0 0,2
16.01.2018 19:00:00 4,9 2,4 3,1 6,4 8,1 18 10 36 20 SW 999,2 20 0 0,0
16.01.2018 18:00:00 5,2 3,0 3,3 6,4 8,0 26 14 40 22 WSW 999,8 20 0 0,0
16.01.2018 17:00:00 3,9 2,6 3,0 6,4 8,0 19 10 76 41 WSW 1000,1 20 0 2,6
16.01.2018 16:00:00 5,4 3,1 4,4 6,4 8,1 25 14 59 32 WSW 1000,0 20 22 0,2
16.01.2018 15:00:00 5,3 3,0 4,5 6,4 8,1 42 23 59 32 W 1000,1 8 0 0,4
16.01.2018 14:00:00 6,7 3,5 6,2 6,4 8,1 24 13 45 24 W 999,9 20 0 0,0
16.01.2018 13:00:00 6,3 3,6 3,6 6,4 8,1 28 15 74 40 WSW 1000,3 20 22 1,0
16.01.2018 12:00:00 6,6 3,0 5,2 6,4 8,1 32 17 49 26 W 1000,7 12 23 0,2
16.01.2018 11:00:00 7,5 3,0 5,7 6,4 8,1 29 16 51 28 W 999,2 20 24 0,0
16.01.2018 10:00:00 6,5 4,2 4,1 6,4 8,1 25 13 38 21 WSW 999,2 20 15 0,0
16.01.2018 09:00:00 5,3 3,9 4,1 6,4 8,1 22 12 52 28 W 998,5 20 0 1,0
16.01.2018 08:00:00 5,5 4,1 4,7 6,4 8,1 35 19 58 32 WNW 998,1 4,5 0 1,2
16.01.2018 07:00:00 7,0 4,0 5,7 6,3 8,1 29 16 46 25 WSW 996,7 20 0 0,0
16.01.2018 06:00:00 6,9 5,2 5,5 6,3 8,1 29 16 48 26 WSW 997,0 20 0 0,2
16.01.2018 05:00:00 6,9 5,2 5,9 6,3 8,1 27 15 48 26 WSW 997,3 19 0 0,4
16.01.2018 04:00:00 7,2 5,0 5,5 6,3 8,1 31 17 44 24 WSW 997,6 20 0 0,0
16.01.2018 03:00:00 7,4 4,9 6,5 6,3 8,1 32 17 46 25 WSW 998,0 20 0 0,0
16.01.2018 02:00:00 7,2 5,0 5,4 6,2 8,1 28 15 38 20 SW 998,2 20 0 0,0
16.01.2018 01:00:00 7,4 5,0 5,9 6,2 8,1 24 13 41 22 SW 999,1 20 0 0,0
16.01.2018 00:00:00 7,3 5,1 5,6 6,2 8,1 23 12 45 24 WSW 999,6 19 0 0,0
15.01.2018 23:00:00 7,3 4,9 5,4 6,2 8,1 27 14 42 23 WSW 999,0 20 0 0,0
15.01.2018 22:00:00 8,0 5,1 6,6 6,1 8,1 33 18 52 28 W 998,6 20 0 0,2
15.01.2018 21:00:00 8,6 6,9 7,5 6,1 8,1 34 18 53 29 WSW 998,0 20 0 0,0
15.01.2018 20:00:00 8,9 7,5 7,4 6,1 8,1 32 17 61 33 WSW 997,5 20 0 0,4
15.01.2018 19:00:00 8,1 7,2 6,6 6,0 8,1 33 18 54 29 SW 996,7 20 0 0,4
15.01.2018 18:00:00 7,2 6,3 6,2 6,0 8,2 36 20 61 33 SSW 997,4 20 0 0,4
15.01.2018 17:00:00 6,8 5,7 5,8 6,0 8,2 40 21 65 35 SSW 998,1 14 0 0,6
15.01.2018 16:00:00 6,3 5,1 5,4 6,0 8,2 40 22 62 33 SSW 999,3 13 0 1,2
15.01.2018 15:00:00 6,3 4,5 5,4 6,0 8,2 46 25 72 39 SSW 1001,1 13 0 1,8
15.01.2018 14:00:00 6,3 4,8 5,7 5,9 8,2 39 21 59 32 SSW 1003,5 9 0 0,4
15.01.2018 13:00:00 6,5 4,3 5,6 5,9 8,2 36 19 59 32 S 1005,2 20 0 0,0
15.01.2018 12:00:00 6,1 4,3 5,3 5,9 8,2 36 19 58 31 S 1007,9 16 0 0,4
15.01.2018 11:00:00 6,2 4,0 5,2 5,9 8,2 34 18 54 29 SSW 1010,2 19 0 0,0
15.01.2018 10:00:00 5,7 3,9 4,7 5,9 8,2 29 16 46 25 SSW 1010,9 18 0 0,0
15.01.2018 09:00:00 5,3 3,9 4,4 5,9 8,2 25 14 39 21 SSW 1012,0 15 0 0,0
15.01.2018 08:00:00 5,0 4,0 4,2 5,9 8,2 23 12 34 18 SSW 1012,9 14 0 0,0
15.01.2018 07:00:00 4,8 4,4 4,2 5,9 8,2 21 11 34 19 SSW 1014,2 10 0 0,0
15.01.2018 06:00:00 4,3 4,2 3,5 5,9 8,2 18 10 29 16 SSW 1014,8 6 0 0,0
15.01.2018 05:00:00 3,5 3,5 2,5 6,0 8,2 16 9 26 14 SSW 1015,6 3,5 0 0,0
15.01.2018 04:00:00 2,5 2,5 1,7 6,0 8,2 15 8 21 12 SSW 1016,4 0,4 0 0,0
15.01.2018 03:00:00 1,8 1,7 0,5 6,1 8,2 16 9 32 17 SW 1017,3 0,5 0 0,0
15.01.2018 02:00:00 1,6 1,5 -2,9 6,1 8,2 13 7 22 12 SSW 1017,5 2,0 0 0,0
15.01.2018 01:00:00 0,6 0,3 -3,1 6,1 8,2 11 6 13 7 S 1018,1 1,9 0 0,0
15.01.2018 00:00:00 1,3 0,9 -1,6 6,1 8,2 10 5 13 7 S 1018,5 3,7 0 0,0
14.01.2018 23:00:00 1,4 0,7 -1,8 6,1 8,2 9 5 11 6 S 1018,9 4,0 0 0,0
14.01.2018 22:00:00 2,4 1,5 -1,5 6,2 8,2 5 3 9 5 SSE 1018,9 6 0 0,0
14.01.2018 21:00:00 2,4 1,4 -1,0 6,2 8,2 7 4 11 6 SSE 1018,7 7 0 0,0
14.01.2018 20:00:00 2,8 1,6 -0,3 6,2 8,2 10 5 12 7 SSE 1018,5 9 0 0,0
14.01.2018 19:00:00 4,0 2,3 0,8 6,1 8,2 4 2 8 4 SE 1018,7 8 0 0,0
14.01.2018 18:00:00 4,0 2,2 2,0 6,1 8,2 6 4 10 5 SE 1018,4 8 0 0,0
14.01.2018 17:00:00 5,1 2,6 4,8 6,1 8,2 8 4 13 7 ESE 1018,2 10 43 0,0
14.01.2018 16:00:00 6,2 2,6 8,9 6,1 8,2 8 4 15 8 SE 1017,9 12 60 0,0
14.01.2018 15:00:00 5,6 2,2 7,5 6,0 8,2 12 6 19 10 SE 1017,8 11 60 0,0
14.01.2018 14:00:00 4,6 2,1 5,9 6,1 8,2 13 7 22 12 SE 1017,9 10 50 0,0
14.01.2018 13:00:00 3,9 1,9 4,8 6,1 8,2 14 8 21 11 ESE 1018,3 8 0 0,0
14.01.2018 12:00:00 3,0 1,0 3,0 6,1 8,2 13 7 19 10 SE 1018,4 8 0 0,0
14.01.2018 11:00:00 2,0 0,5 1,3 6,2 8,2 15 8 23 13 ESE 1018,7 7 0 0,0
14.01.2018 10:00:00 1,3 0,0 0,3 6,2 8,2 13 7 19 11 ESE 1018,5 7 0 0,0
14.01.2018 09:00:00 0,9 -0,3 -0,5 6,3 8,2 12 6 16 9 ESE 1017,9 7 0 0,0
14.01.2018 08:00:00 0,5 -0,6 -1,5 6,3 8,2 11 6 17 9 E 1017,5 6 0 0,0
14.01.2018 07:00:00 -0,1 -1,1 -2,0 6,4 8,2 11 6 16 9 E 1017,3 6 0 0,0
14.01.2018 06:00:00 -0,1 -1,1 -2,2 6,4 8,2 11 6 16 8 E 1017,2 6 0 0,0
14.01.2018 05:00:00 0,3 -0,7 -2,2 6,4 8,2 13 7 18 10 E 1017,3 7 0 0,0
14.01.2018 04:00:00 -0,1 -1,2 -2,2 6,5 8,2 10 5 17 9 E 1017,3 6 0 0,0
14.01.2018 03:00:00 0,4 -0,7 -1,3 6,5 8,2 11 6 18 10 E 1017,4 7 0 0,0
14.01.2018 02:00:00 0,4 -0,7 -1,4 6,6 8,2 13 7 18 10 ENE 1017,5 7 0 0,0
14.01.2018 01:00:00 0,9 -0,6 -0,2 6,6 8,2 13 7 19 10 ENE 1018,0 8 0 0,0
14.01.2018 00:00:00 1,0 -0,8 -0,4 6,7 8,2 14 7 19 10 ENE 1018,3 9 0 0,0
13.01.2018 23:00:00 1,4 -0,5 -0,5 6,7 8,2 13 7 17 9 ENE 1018,6 11 0 0,0
13.01.2018 22:00:00 1,8 -0,3 0,1 6,7 8,2 11 6 18 10 ENE 1019,0 11 0 0,0
13.01.2018 21:00:00 2,0 -0,3 0,3 6,7 8,2 12 7 18 10 ENE 1019,3 12 0 0,0
13.01.2018 20:00:00 2,8 0,0 0,6 6,7 8,2 12 7 29 16 E 1019,6 15 0 0,0
13.01.2018 19:00:00 4,2 0,7 3,6 6,7 8,2 18 10 45 24 E 1020,0 19 0 0,0
13.01.2018 18:00:00 4,2 0,9 3,3 6,7 8,2 24 13 36 19 ESE 1019,8 15 0 0,0
13.01.2018 17:00:00 4,2 0,9 3,7 6,8 8,2 25 13 35 19 ESE 1020,2 14 0 0,0
13.01.2018 16:00:00 4,5 1,5 4,3 6,8 8,2 21 12 37 20 ESE 1020,4 13 0 0,0
13.01.2018 15:00:00 4,9 1,7 5,0 6,8 8,3 27 14 39 21 ESE 1020,5 14 0 0,0
13.01.2018 14:00:00 4,8 2,0 4,5 6,8 8,2 23 12 38 20 ESE 1021,2 13 3 0,0
13.01.2018 13:00:00 3,9 1,8 3,7 6,8 8,2 24 13 39 21 ESE 1022,2 13 0 0,0
13.01.2018 12:00:00 3,2 2,0 3,3 6,8 8,2 25 13 37 20 SE 1023,1 8 0 0,0
13.01.2018 11:00:00 3,1 2,8 3,3 6,9 8,2 20 11 33 18 SE 1023,4 3,7 0 0,0
13.01.2018 10:00:00 3,1 3,0 2,9 6,9 8,2 17 9 29 16 SE 1023,6 1,4 0 0,0
13.01.2018 09:00:00 2,8 2,7 2,9 6,9 8,3 22 12 32 17 ESE 1023,3 1,2 0 0,0
13.01.2018 08:00:00 2,9 2,8 2,9 6,9 8,2 18 10 30 16 SE 1023,5 0,8 0 0,0
13.01.2018 07:00:00 3,0 2,7 3,0 6,9 8,3 24 13 31 17 ESE 1023,4 2,2 0 0,0
13.01.2018 06:00:00 3,6 3,2 3,5 7,0 8,2 19 10 25 13 ESE 1023,4 2,6 0 0,0
13.01.2018 05:00:00 4,0 3,7 3,9 7,0 8,2 14 7 19 11 E 1023,8 2,8 0 0,0
13.01.2018 04:00:00 4,0 3,9 3,7 7,0 8,3 5 3 9 5 E 1024,2 1,9 0 0,0
13.01.2018 03:00:00 3,8 3,7 1,7 7,0 8,2 5 3 7 4 E 1024,7 1,5 0 0,0
13.01.2018 02:00:00 3,1 2,8 1,5 7,1 8,2 4 2 6 3 ENE 1024,8 0,6 0 0,0
13.01.2018 01:00:00 3,0 2,9 0,1 7,1 8,2 2 1 9 5 NNE 1025,3 0,6 0 0,0
13.01.2018 00:00:00 3,3 3,0 0,2 7,1 8,2 3 2 8 4 WNW 1025,8 0,5 0 0,0
12.01.2018 23:00:00 4,1 3,7 0,2 7,1 8,2 6 3 10 5 ENE 1025,9 2,8 0 0,0
12.01.2018 22:00:00 4,4 3,4 2,7 7,1 8,2 8 4 10 5 NE 1025,9 3,5 0 0,0
12.01.2018 21:00:00 5,1 3,9 2,4 7,1 8,2 5 3 8 5 NE 1026,1 4,8 0 0,0
12.01.2018 20:00:00 5,5 4,1 2,7 7,1 8,2 2 1 5 3 NW 1026,2 6 0 0,0
12.01.2018 19:00:00 6,0 4,3 5,3 7,1 8,2 0 0 6 4 N 1026,1 7 0 0,0
12.01.2018 18:00:00 6,2 4,7 5,8 7,1 8,2 4 2 9 5 W 1026,2 6 0 0,0
12.01.2018 17:00:00 6,3 4,6 6,0 7,0 8,2 3 1 6 4 SW 1026,0 6 0 0,0
12.01.2018 16:00:00 6,4 4,7 6,5 7,0 8,2 0 0 14 8 N 1026,0 7 0 0,0
12.01.2018 15:00:00 6,0 4,8 6,8 7,0 8,2 5 3 14 8 E 1025,8 7 0 0,0
12.01.2018 14:00:00 6,0 5,6 6,2 7,0 8,2 6 3 11 6 NE 1026,0 3,2 0 0,0
12.01.2018 13:00:00 5,7 5,6 5,9 7,0 8,2 6 3 12 6 NNE 1026,6 3,1 0 0,0
12.01.2018 12:00:00 5,3 5,2 5,7 7,0 8,3 7 4 11 6 NNE 1027,0 1,5 0 0,0
12.01.2018 11:00:00 5,1 5,1 5,0 7,0 8,2 6 3 14 8 N 1027,2 1,7 0 0,0
12.01.2018 10:00:00 4,8 4,7 4,7 7,0 8,2 8 4 19 11 N 1026,9 0,6 0 0,0
12.01.2018 09:00:00 4,7 4,6 4,6 7,1 8,3 11 6 17 9 NNW 1026,5 0,4 0 0,0
12.01.2018 08:00:00 4,6 4,5 4,6 7,0 8,2 6 4 14 7 N 1026,3 0,3 0 0,0
12.01.2018 07:00:00 4,7 4,6 4,7 7,0 8,2 5 3 12 6 N 1025,7 0,2 0 0,0
12.01.2018 06:00:00 4,7 4,6 4,6 7,1 8,2 8 4 21 11 N 1025,4 0,2 0 0,0
12.01.2018 05:00:00 5,0 4,7 4,8 7,1 8,2 10 6 19 10 N 1025,3 0,8 0 0,0
12.01.2018 04:00:00 4,9 4,5 4,8 7,1 8,2 10 5 18 10 NE 1024,9 2,4 0 0,0
12.01.2018 03:00:00 4,9 4,6 3,8 7,1 8,2 10 5 19 11 NNE 1024,9 4,2 0 0,0
12.01.2018 02:00:00 4,7 4,4 4,4 7,1 8,2 12 7 21 12 N 1024,4 1,4 0 0,0
12.01.2018 01:00:00 5,7 5,1 5,4 7,1 8,2 13 7 21 11 N 1024,2 3,4 0 0,0
12.01.2018 00:00:00 5,8 5,2 5,5 7,1 8,2 10 5 22 12 N 1024,0 3,3 0 0,0
11.01.2018 23:00:00 5,7 5,3 5,5 7,1 8,3 17 9 26 14 N 1023,2 3,4 0 0,0
11.01.2018 22:00:00 5,8 5,7 5,6 7,1 8,2 11 6 17 9 N 1022,9 1,7 0 0,0
11.01.2018 21:00:00 5,7 5,6 5,6 7,0 8,2 10 6 16 9 NNW 1022,4 1,1 0 0,0
11.01.2018 20:00:00 5,8 5,5 5,7 7,1 8,2 9 5 16 9 N 1021,6 0,5 0 0,0
11.01.2018 19:00:00 6,2 5,6 5,9 7,0 8,2 8 4 14 7 NNW 1021,0 3,5 0 0,0
11.01.2018 18:00:00 6,1 5,7 5,8 7,0 8,2 6 3 13 7 N 1020,2 3,1 0 0,0
11.01.2018 17:00:00 5,8 5,7 5,5 7,0 8,2 8 5 18 10 NNE 1019,7 3,5 0 0,0
11.01.2018 16:00:00 5,8 5,4 5,8 7,0 8,3 11 6 20 11 NNE 1019,1 2,4 0 0,0
11.01.2018 15:00:00 7,0 6,1 7,1 6,9 8,2 13 7 19 10 NNE 1018,0 8 0 0,0
11.01.2018 14:00:00 6,9 6,3 7,5 6,9 8,2 8 5 12 6 NNE 1017,2 8 0 0,0
11.01.2018 13:00:00 6,7 6,4 7,4 6,9 8,3 4 2 8 4 NNW 1017,0 6 0 0,0
11.01.2018 12:00:00 6,5 6,4 6,9 6,9 8,2 4 2 9 5 NNE 1016,8 4,7 0 0,0
11.01.2018 11:00:00 6,1 6,1 5,8 6,9 8,2 4 2 8 5 N 1016,2 2,6 0 0,0
11.01.2018 10:00:00 5,4 5,4 5,3 6,9 8,2 4 2 9 5 NNW 1015,4 0,2 0 0,0
11.01.2018 09:00:00 5,1 5,0 5,3 6,9 8,2 6 3 9 5 WSW 1014,6 0,1 0 0,0
11.01.2018 08:00:00 5,6 5,5 5,3 6,9 8,2 7 4 11 6 SE 1013,4 0,2 0 0,0
11.01.2018 07:00:00 5,6 5,5 4,1 6,9 8,3 6 3 10 5 ESE 1012,6 0,9 0 0,0
11.01.2018 06:00:00 5,1 5,0 4,3 6,9 8,3 9 5 11 6 E 1011,8 0,3 0 0,0
11.01.2018 05:00:00 5,3 5,2 4,1 7,0 8,3 5 3 9 5 ESE 1011,3 0,8 0 0,0
11.01.2018 04:00:00 5,2 5,1 2,3 7,0 8,3 7 4 10 5 E 1011,0 2,0 0 0,0
11.01.2018 03:00:00 5,6 5,5 4,1 7,0 8,3 6 3 8 5 ENE 1010,7 3,5 0 0,0
11.01.2018 02:00:00 5,6 5,3 2,2 7,0 8,3 5 3 9 5 ESE 1010,3 2,2 0 0,0
11.01.2018 01:00:00 5,5 5,2 1,9 7,0 8,3 5 3 10 5 ESE 1009,9 1,0 0 0,0

tt = Température de l'air
td = dewpoint
tt 5cm = Température de l'air 5cm
tt -20cm = Température de l'air -20cm
tt -100cm = Température de l'air -100cm
ff = Vitesse du vent
fx = gusts
dd = Direction du vent
ppp = reduced air pressure
vv = visibility
sd = Ensoleillement
rr = Quantités de précipitations

stations d'obs. à proximité